Location: Rounton
(54.4000°N, 1.3500°W)
Time: 21:45:36
(UTC+00:00)

Explorer 7 - Pass Details

Date: 06 December 2021
Orbit: 483 x 674 km, 50.3° (Epoch: 17 January)

Event Time Altitude Azimuth Distance (km) Brightness Sun altitude
Rises 05:19:14 0° 218° (SW) 2,842 - -23.5°
Reaches altitude 10° 05:21:54 10° 205° (SSW) 1,904 - -23.1°
Exits shadow 05:23:09 16° 192° (SSW) 1,540 9.0 -22.9°
Maximum altitude 05:25:21 23° 152° (SSE) 1,211 8.9 -22.6°
Drops below altitude 10° 05:28:39 10° 99° (E) 1,813 10.6 -22.1°
Sets 05:31:08 0° 85° (E) 2,672 11.7 -21.8°
